Sacramento, CA

3:22 PM PST on January 20, 2018 (GMT -0800)
Sacramento Executive

Weather History for KSAC - October, 2014

Change the Weather History Date:

Tuesday, October 14, 2014

  Actual Average Record
Temperature  
Mean Temperature 66 °F -  
Max Temperature 74 °F 79 °F 96 °F (1991)
Min Temperature 58 °F 51 °F 42 °F (1980)
Degree Days  
Heating Degree Days 0    
Cooling Degree Days 1    
Growing Degree Days 14 (Base 50)    
Moisture  
Dew Point 54 °F    
Average Humidity 70    
Maximum Humidity 86    
Minimum Humidity 53    
Precipitation  
Precipitation 0.00 in 0.03 in 0.65 in (2016)
Month to date precipitation 0.00 0.28  
Year to date precipitation 8.36 12.52  
Since 1 July precipitation 0.47  
Sea Level Pressure  
Sea Level Pressure 29.86 in    
Wind  
Wind Speed 8 mph (SSW)    
Max Wind Speed 22 mph    
Max Gust Speed 28 mph    
Visibility 10 miles    
Events      
T = Trace of Precipitation, MM = Missing Value Source: NWS Daily Summary

Daily Weather History Graph

Daily Weather History Graph

Search for Another Location

Airport or City:

Trip Planner

Search our weather history database for the weather conditions in past years. The results will help you decide how hot, cold, wet, or windy it might be!

Date:

Astronomy

Oct. 14, 2014 Rise Set
Actual Time 7:14 AM PDT 6:29 PM PDT
Civil Twilight 6:47 AM PDT 6:55 PM PDT
Nautical Twilight 6:16 AM PDT 7:26 PM PDT
Astronomical Twilight 5:45 AM PDT 7:57 PM PDT
Moon 11:41 PM PDT (10/14) 1:16 PM PDT (10/14)
Length of Visible Light 12h 08m
Length of Day
11h 14m
Waning Gibbous, 60% of the Moon is Illuminated
Oct 14
Waning Gibbous
Oct 15
Last Quarter
Oct 23
New
Oct 30
First Quarter
Nov 6
Full

Hourly Weather History & Observations

Time (PDT) Temp. Dew Point Humidity Pressure Visibility Wind Dir Wind Speed Gust Speed Precip Events Conditions
12:53 AM 63.0 °F 51.1 °F 65% 29.90 in 10.0 mi South 4.6 mph - N/A   Clear
1:53 AM 61.0 °F 53.1 °F 75% 29.91 in 10.0 mi South 5.8 mph - N/A   Clear
2:53 AM 60.1 °F 53.1 °F 78% 29.90 in 10.0 mi South 8.1 mph - N/A   Clear
3:53 AM 60.1 °F 52.0 °F 75% 29.90 in 10.0 mi SE 5.8 mph - N/A   Clear
4:53 AM 59.0 °F 52.0 °F 78% 29.90 in 10.0 mi SSE 4.6 mph - N/A   Clear
5:53 AM 57.9 °F 53.1 °F 84% 29.88 in 10.0 mi South 4.6 mph - N/A   Clear
6:53 AM 57.9 °F 53.1 °F 84% 29.87 in 10.0 mi SSE 4.6 mph - N/A   Clear
7:53 AM 59.0 °F 53.6 °F 82% 29.86 in 10.0 mi South 3.5 mph - N/A   Clear
8:53 AM 62.1 °F 54.0 °F 75% 29.86 in 10.0 mi Variable 6.9 mph - N/A   Clear
9:53 AM 66.9 °F 55.0 °F 66% 29.86 in 10.0 mi SW 15.0 mph 21.9 mph N/A   Clear
10:53 AM 71.1 °F 54.0 °F 55% 29.87 in 10.0 mi SW 18.4 mph 26.5 mph N/A   Clear
11:53 AM 72.0 °F 54.0 °F 53% 29.86 in 10.0 mi SW 19.6 mph 25.3 mph N/A   Clear
12:53 PM 71.1 °F 55.0 °F 57% 29.85 in 10.0 mi WSW 17.3 mph 27.6 mph N/A   Clear
1:53 PM 72.0 °F 55.0 °F 55% 29.82 in 10.0 mi WSW 15.0 mph - N/A   Clear
2:53 PM 72.0 °F 54.0 °F 53% 29.81 in 10.0 mi SW 16.1 mph 24.2 mph N/A   Clear
3:53 PM 70.0 °F 55.0 °F 59% 29.80 in 10.0 mi West 12.7 mph - N/A   Clear
4:53 PM 70.0 °F 53.1 °F 55% 29.81 in 10.0 mi West 15.0 mph 21.9 mph N/A   Partly Cloudy
5:53 PM 69.1 °F 54.0 °F 58% 29.82 in 10.0 mi WSW 12.7 mph - N/A   Partly Cloudy
6:53 PM 68.0 °F 54.0 °F 61% 29.83 in 10.0 mi WSW 9.2 mph 17.3 mph N/A   Clear
7:53 PM 66.0 °F 55.0 °F 68% 29.84 in 10.0 mi Variable 3.5 mph - N/A   Scattered Clouds
8:53 PM 66.0 °F 55.0 °F 68% 29.85 in 10.0 mi Calm Calm - N/A   Overcast
9:53 PM 64.9 °F 55.0 °F 70% 29.85 in 10.0 mi Calm Calm - N/A   Mostly Cloudy
10:53 PM 64.0 °F 55.0 °F 73% 29.85 in 10.0 mi ESE 3.5 mph - N/A   Overcast
11:53 PM 64.0 °F 55.0 °F 73% 29.86 in 10.0 mi Calm Calm - N/A   Partly Cloudy